TimeCST,TemperatureF,Dew PointF,Humidity,Sea Level PressureIn,VisibilityMPH,Wind Direction,Wind SpeedMPH,Gust SpeedMPH,PrecipitationIn,Events,Conditions,WindDirDegrees,DateUTC
12:14 AM,21.2,19.4,93,30.15,1.2,NE,11.5,-,N/A,Snow,Light Snow,50,2013-03-05 06:14:00
12:33 AM,21.2,19.4,93,30.15,1.0,ENE,10.4,-,N/A,Snow,Snow,60,2013-03-05 06:33:00
12:53 AM,21.2,19.4,93,30.16,1.5,NE,9.2,-,N/A,Snow,Light Snow,40,2013-03-05 06:53:00
1:14 AM,19.4,17.6,93,30.16,2.0,NE,10.4,-,N/A,Snow,Light Snow,40,2013-03-05 07:14:00
1:53 AM,19.4,17.6,93,30.16,1.5,NE,11.5,-,N/A,Snow,Light Snow,40,2013-03-05 07:53:00
2:34 AM,19.4,17.6,93,30.17,1.5,NE,10.4,-,N/A,Snow,Light Snow,40,2013-03-05 08:34:00
2:53 AM,19.4,17.6,93,30.17,1.5,NE,10.4,-,N/A,Snow,Light Snow,40,2013-03-05 08:53:00
3:11 AM,19.4,17.6,93,30.17,1.5,NE,11.5,-,N/A,Snow,Light Snow,40,2013-03-05 09:11:00
3:21 AM,19.4,15.8,86,30.17,1.8,NE,9.2,-,N/A,,Overcast,50,2013-03-05 09:21:00
3:49 AM,19.4,15.8,86,30.18,1.8,NE,9.2,-,N/A,Snow,Light Snow,50,2013-03-05 09:49:00
3:53 AM,19.4,15.8,86,30.18,1.5,NE,9.2,-,N/A,Snow,Light Snow,40,2013-03-05 09:53:00
4:14 AM,19.4,15.8,86,30.18,1.5,NE,8.1,-,N/A,Snow,Light Snow,40,2013-03-05 10:14:00
4:33 AM,19.4,15.8,86,30.18,1.2,NE,9.2,-,N/A,Snow,Light Snow,50,2013-03-05 10:33:00
4:53 AM,17.6,15.8,93,30.19,1.8,NE,10.4,-,N/A,Snow,Light Snow,40,2013-03-05 10:53:00
5:14 AM,17.6,15.8,93,30.19,1.8,NE,10.4,-,N/A,Snow,Light Snow,40,2013-03-05 11:14:00
5:33 AM,17.6,15.8,93,30.20,2.0,NE,8.1,-,N/A,Snow,Light Snow,40,2013-03-05 11:33:00
5:53 AM,17.6,15.8,93,30.20,2.0,NE,9.2,-,N/A,Snow,Light Snow,50,2013-03-05 11:53:00
6:14 AM,17.6,15.8,93,30.21,2.0,NE,8.1,-,N/A,Snow,Light Snow,40,2013-03-05 12:14:00
6:53 AM,17.6,15.8,93,30.22,1.8,NE,6.9,-,N/A,Snow,Light Snow,50,2013-03-05 12:53:00
7:14 AM,17.6,14.0,86,30.23,1.2,NE,8.1,-,N/A,Snow,Light Snow,50,2013-03-05 13:14:00
7:33 AM,17.6,14.0,86,30.23,1.0,NE,9.2,-,N/A,Snow,Light Snow,40,2013-03-05 13:33:00
7:53 AM,17.6,15.8,93,30.24,0.8,NNE,6.9,-,N/A,Snow,Light Snow,30,2013-03-05 13:53:00
8:13 AM,17.6,14.0,86,30.25,0.8,NE,8.1,-,N/A,Snow,Light Snow,40,2013-03-05 14:13:00
8:33 AM,17.6,14.0,86,30.26,0.8,NE,9.2,-,N/A,Snow,Light Snow,40,2013-03-05 14:33:00
8:54 AM,17.6,14.0,86,30.26,0.8,NE,8.1,-,N/A,Snow,Light Snow,50,2013-03-05 14:54:00
9:13 AM,17.6,14.0,86,30.26,1.0,NE,10.4,-,N/A,Snow,Light Snow,40,2013-03-05 15:13:00
9:34 AM,17.6,14.0,86,30.27,0.8,NNE,9.2,-,N/A,Snow,Light Snow,30,2013-03-05 15:34:00
9:54 AM,17.6,14.0,86,30.27,1.2,NNE,11.5,-,N/A,Snow,Light Snow,30,2013-03-05 15:54:00
10:13 AM,17.6,14.0,86,30.28,2.0,NE,10.4,-,N/A,Snow,Light Snow,40,2013-03-05 16:13:00
10:34 AM,17.6,14.0,86,30.28,1.2,NNE,11.5,-,N/A,Snow,Light Snow,30,2013-03-05 16:34:00
10:54 AM,17.6,14.0,86,30.29,1.2,NNE,11.5,16.1,N/A,Snow,Light Snow,30,2013-03-05 16:54:00
11:13 AM,17.6,14.0,86,30.29,1.8,NNE,12.7,-,N/A,Snow,Light Snow,30,2013-03-05 17:13:00
11:34 AM,17.6,14.0,86,30.29,1.2,NNE,15.0,-,N/A,Snow,Light Snow,30,2013-03-05 17:34:00
11:54 AM,19.4,15.8,86,30.30,1.8,NNE,13.8,-,N/A,Snow,Light Snow,30,2013-03-05 17:54:00
12:13 PM,19.4,14.0,80,30.30,1.8,NE,12.7,-,N/A,Snow,Light Snow,50,2013-03-05 18:13:00
12:33 PM,19.4,14.0,80,30.30,1.8,NE,11.5,-,N/A,Snow,Light Snow,50,2013-03-05 18:33:00
12:54 PM,19.4,14.0,80,30.30,1.8,NNE,15.0,-,N/A,Snow,Light Snow,30,2013-03-05 18:54:00
1:13 PM,19.4,14.0,80,30.30,1.8,NE,15.0,-,N/A,Snow,Light Snow,40,2013-03-05 19:13:00
1:33 PM,19.4,14.0,80,30.30,2.0,NE,11.5,-,N/A,Snow,Light Snow,40,2013-03-05 19:33:00
1:53 PM,19.4,15.8,86,30.30,1.5,NE,10.4,-,N/A,Snow,Light Snow,40,2013-03-05 19:53:00
2:13 PM,19.4,15.8,86,30.30,1.2,NE,10.4,-,N/A,Snow,Light Snow,40,2013-03-05 20:13:00
2:34 PM,19.4,15.8,86,30.30,1.8,NNE,10.4,-,N/A,Snow,Light Snow,20,2013-03-05 20:34:00
2:53 PM,19.4,15.8,86,30.30,1.8,NNE,12.7,-,N/A,Snow,Light Snow,20,2013-03-05 20:53:00
3:13 PM,19.4,15.8,86,30.31,4.0,NNE,12.7,-,N/A,Snow,Light Snow,20,2013-03-05 21:13:00
3:34 PM,19.4,15.8,86,30.30,4.0,NNE,11.5,-,N/A,Snow,Light Snow,30,2013-03-05 21:34:00
3:53 PM,19.4,15.8,86,30.31,2.0,NNE,12.7,-,N/A,Snow,Light Snow,30,2013-03-05 21:53:00
4:13 PM,19.4,15.8,86,30.31,2.0,NE,11.5,-,N/A,Snow,Light Snow,40,2013-03-05 22:13:00
4:34 PM,19.4,15.8,86,30.31,2.5,NNE,10.4,-,N/A,Snow,Light Snow,30,2013-03-05 22:34:00
4:53 PM,19.4,15.8,86,30.32,4.0,NNE,9.2,-,N/A,Snow,Light Snow,30,2013-03-05 22:53:00
5:13 PM,19.4,15.8,86,30.32,7.0,NNE,6.9,-,N/A,Snow,Light Snow,20,2013-03-05 23:13:00
5:34 PM,19.4,15.8,86,30.32,10.0,NNE,8.1,-,N/A,Snow,Light Snow,30,2013-03-05 23:34:00
5:53 PM,19.4,15.8,86,30.33,10.0,NNE,6.9,-,N/A,Snow,Light Snow,20,2013-03-05 23:53:00
6:13 PM,19.4,15.8,86,30.33,10.0,NE,9.2,-,N/A,Snow,Light Snow,40,2013-03-06 00:13:00
6:34 PM,19.4,15.8,86,30.34,3.0,NE,6.9,-,N/A,Snow,Light Snow,40,2013-03-06 00:34:00
6:53 PM,19.4,15.8,86,30.34,2.5,NE,9.2,-,N/A,Snow,Light Snow,40,2013-03-06 00:53:00
7:13 PM,19.4,15.8,86,30.34,2.0,NE,5.8,-,N/A,Snow,Light Snow,50,2013-03-06 01:13:00
7:34 PM,19.4,15.8,86,30.34,4.0,North,4.6,-,N/A,Snow,Light Snow,10,2013-03-06 01:34:00
7:53 PM,17.6,15.8,93,30.34,2.5,NNE,8.1,-,N/A,Snow,Light Snow,30,2013-03-06 01:53:00
8:13 PM,17.6,15.8,93,30.34,2.5,NNE,6.9,-,N/A,Snow,Light Snow,30,2013-03-06 02:13:00
8:34 PM,17.6,15.8,93,30.35,2.5,NNE,5.8,-,N/A,Snow,Light Snow,20,2013-03-06 02:34:00
8:53 PM,17.6,15.8,93,30.35,2.5,NNE,5.8,-,N/A,Snow,Light Snow,20,2013-03-06 02:53:00
9:13 PM,17.6,15.8,93,30.35,2.5,NNE,6.9,-,N/A,Snow,Light Snow,30,2013-03-06 03:13:00
9:34 PM,17.6,14.0,86,30.35,4.0,NNE,5.8,-,N/A,Snow,Light Snow,20,2013-03-06 03:34:00
9:53 PM,15.8,14.0,93,30.35,4.0,NNE,5.8,-,N/A,Snow,Light Snow,30,2013-03-06 03:53:00
10:13 PM,15.8,14.0,93,30.35,5.0,NNE,5.8,-,N/A,Snow,Light Snow,20,2013-03-06 04:13:00
10:34 PM,15.8,12.2,86,30.35,3.0,NNE,4.6,-,N/A,Snow,Light Snow,20,2013-03-06 04:34:00
10:53 PM,14.0,12.2,93,30.36,5.0,NE,3.5,-,N/A,Snow,Light Snow,40,2013-03-06 04:53:00
11:14 PM,12.2,10.4,92,30.36,4.0,NNE,3.5,-,N/A,Snow,Light Snow,20,2013-03-06 05:14:00
11:33 PM,8.6,6.8,92,30.36,10.0,Calm,Calm,-,N/A,,Overcast,0,2013-03-06 05:33:00
11:53 PM,10.4,10.4,100,30.36,10.0,Calm,Calm,-,N/A,,Overcast,0,2013-03-06 05:53:00